Orbital Elements at Epoch 2459200.5 (2020-Dec-17.0) TDB
Reference: JPL 18 (heliocentric ecliptic J2000)
Element | Value | Uncertainty (1-sigma) | Units |
e | .1042845657750989 | 3.5011e-08 | |
a | 2.275401880708502 | 9.253e-09 | au |
q | 2.038112583614973 | 7.8893e-08 | au |
i | 6.335342143346018 | 4.6456e-06 | deg |
node | 5.880082116922495 | 3.4684e-05 | deg |
peri | 79.07549515651729 | 4.1414e-05 | deg |
M | 102.4885752329097 | 2.2871e-05 | deg |
tp | 2458843.590135928401 (2019-Dec-26.09013593) | 7.8986e-05 | TDB |
period | 1253.676819819011 3.43 | 7.6471e-06 2.094e-08 | d yr |
n | .2871553452284233 | 1.7516e-09 | deg/d |
Q | 2.512691177802032 | 1.0218e-08 | au |
|
| | Orbit Determination Parameters
Additional Information
|